Back to catalog

STARLINK-34214

AliveCommunicationsVLEO
NORAD 64190·PAYLOAD·🇺🇸 United States

Launched May 28, 2025 from Cape Canaveral Space Force Station

Loading…

Next Passes (next 24 hours)

TLE

FreshSource: CelesTrak SupGP

Epoch: Sep 14, 2026, 23:04 UTC

1 64190C 25113W   26257.96159722  .00048578  00000+0  14355-2 0  2573
2 64190  53.1574 291.6126 0001214 100.9379  79.5474 15.34361050    16

Track STARLINK-34214 in real time with AllMySat

Download on the App Store